Location: Clover
(42.5131°N, 114.6874°W)
Time: 15:17:14
(UTC+00:00)

ARIANE 6 FM1 Upper Stage - Pass Details

Date: 22 January 2026
Orbit: 522 x 608 km, 62.0° (Epoch: 17 February)

Event Time Altitude Azimuth Distance (km) Brightness Sun altitude
Rises 01:30:55 0° 179° (S) 2,718 6.4 -9.8°
Reaches altitude 10° 01:33:39 10° 161° (SSE) 1,811 5.2 -10.2°
Maximum altitude 01:36:29 18° 116° (ESE) 1,345 4.2 -10.7°
Enters shadow 01:38:04 15° 87° (E) 1,497 4.2 -11.0°
